Wind_Speed
24 25 25 25 25 24 24 24 24 23 23 23 22 22 21 20 20 19 18 18 18 18 18 19 20 20 20 19 19 19 18 17 18 24 29 27 24 25 25 23 23 23 23 22 21 21 21 20 19 18 18 16 15 14 13 11 10 8 3 1 0 1 3 5 7 6 6 9 14 18 19 18 16 16 16 14 13 12 11 11 9 9 8 8 7 6 8 8
25 26 26 26 26 26 26 25 25 25 25 25 25 24 23 23 22 21 20 20 19 19 19 19 20 21 21 21 21 20 20 20 19 23 28 28 27 26 25 25 24 24 23 24 24 23 23 22 20 19 18 17 16 15 13 13 11 8 4 1 2 1 3 5 5 4 6 10 13 15 15 15 15 15 15 14 12 11 11 10 9 9 8 7 8 6 7 8
26 26 27 27 27 27 27 27 27 27 26 26 26 26 26 25 24 24 23 22 21 21 20 20 21 21 23 23 22 22 21 21 22 23 25 29 30 28 27 26 26 25 25 25 25 24 23 22 21 20 19 17 16 15 14 13 10 8 5 1 1 1 4 5 4 4 5 8 9 12 13 12 13 13 13 13 12 12 12 11 9 9 8 7 8 6 6 8
25 26 26 27 27 27 27 28 28 28 28 28 28 27 27 27 27 26 25 24 23 22 22 21 21 22 23 24 24 23 23 23 23 23 24 28 31 31 30 29 28 27 26 25 24 23 23 22 21 21 20 18 17 16 14 12 10 9 6 4 2 1 3 3 4 4 4 7 8 11 13 13 12 11 12 13 12 10 11 11 11 10 8 7 7 7 7 8
26 26 27 27 27 27 28 28 28 28 29 29 30 29 29 28 29 28 28 27 26 25 24 23 23 23 23 24 25 25 25 25 23 23 25 27 28 31 33 32 30 29 28 26 25 24 24 23 22 21 20 19 18 16 14 13 12 10 6 4 4 3 2 3 2 3 3 6 9 9 11 12 13 12 12 12 10 9 11 13 13 11 9 8 7 8 9 8
25 26 27 28 28 28 28 28 28 29 29 30 30 30 30 30 30 29 30 29 29 28 26 25 24 24 25 25 26 26 28 25 20 23 26 27 28 29 31 32 31 30 29 28 27 26 25 24 23 21 21 19 19 18 16 14 13 11 7 5 5 4 4 3 3 2 1 3 8 11 11 12 14 14 14 14 12 12 13 13 13 11 10 9 9 9 9 9
25 26 27 28 29 29 29 29 29 30 30 30 30 30 31 31 31 31 31 31 31 30 29 28 27 26 26 26 27 27 29 26 23 25 26 26 29 29 29 29 29 30 30 29 28 27 26 25 24 23 23 21 20 19 18 16 14 12 9 7 6 5 5 5 4 4 3 3 5 11 14 15 16 15 15 16 15 14 14 12 11 10 9 9 9 10 10 9
26 27 28 28 29 29 29 30 30 31 31 31 30 30 31 31 32 33 33 32 32 32 32 31 30 29 28 28 28 28 30 27 24 28 27 27 29 30 29 28 27 28 29 30 30 29 28 26 26 25 24 23 22 21 20 17 15 14 11 8 7 7 6 8 7 6 6 5 3 9 15 17 18 16 15 17 16 14 13 11 11 11 9 9 9 10 10 9
26 27 28 29 29 28 28 29 30 30 31 31 31 31 31 31 32 33 34 34 33 33 33 34 33 32 31 30 30 30 31 25 24 30 29 27 29 29 30 30 28 28 28 29 30 30 29 28 28 27 27 28 27 25 22 19 17 16 14 10 9 9 7 9 10 8 7 6 4 8 15 19 19 16 16 16 16 15 12 12 13 11 10 10 10 11 10 9
25 26 27 28 28 28 28 28 29 29 29 30 31 32 32 31 32 33 34 35 35 34 34 35 35 34 34 33 32 33 30 25 26 31 30 28 29 29 30 31 31 30 29 29 30 30 30 30 30 30 31 30 27 25 22 21 21 19 16 13 11 10 8 10 12 10 9 7 6 8 14 19 20 18 17 16 15 14 13 13 14 12 11 11 11 11 11 10
25 25 26 26 27 27 27 27 28 28 28 29 30 31 32 32 33 33 34 35 35 35 35 36 36 36 36 35 35 34 30 26 28 30 31 30 30 30 30 31 32 33 31 30 30 31 31 32 33 33 31 28 25 22 21 22 22 19 18 15 13 12 10 11 12 12 11 8 7 9 14 20 21 21 19 17 16 15 14 15 14 13 12 12 12 11 11 10
24 24 24 25 25 25 25 26 27 28 28 29 30 31 32 33 33 33 34 35 35 36 36 37 37 37 38 37 38 36 31 29 30 31 31 31 32 31 31 31 33 34 35 33 32 32 32 33 33 32 30 28 25 23 23 25 23 20 19 18 16 13 12 13 14 13 12 10 9 9 14 20 20 21 21 19 17 17 16 16 15 13 12 13 14 12 11 11
24 24 23 23 23 23 24 24 25 26 28 28 29 30 31 33 34 34 35 35 36 37 38 39 38 39 39 39 41 38 33 31 32 33 32 32 33 33 33 32 32 34 36 36 35 34 33 33 31 30 29 26 26 26 26 26 24 20 20 20 16 14 14 16 16 15 12 11 10 10 16 22 20 19 20 20 20 18 18 17 16 15 13 13 14 13 12 11
24 23 22 22 22 22 22 23 23 24 27 28 29 30 31 32 34 35 36 36 37 38 39 39 39 40 40 41 41 37 34 34 35 35 34 33 34 34 34 34 33 34 35 36 37 36 34 32 29 29 26 23 25 25 22 22 22 20 20 20 17 16 17 16 16 16 14 12 9 9 15 20 20 19 18 19 20 19 18 17 17 15 14 14 14 14 13 12
24 23 22 21 21 21 21 21 22 22 24 26 28 29 31 32 34 35 36 37 37 38 40 40 41 41 41 42 41 38 38 38 37 37 36 35 34 35 35 36 35 35 35 36 37 37 36 31 28 28 25 24 25 22 18 19 20 20 20 20 18 18 18 16 16 16 15 13 8 7 12 15 18 20 19 18 19 18 17 17 17 16 15 15 15 14 14 13
25 24 23 22 21 21 20 20 20 21 22 24 25 27 29 31 34 35 36 38 38 39 40 41 42 42 42 43 41 39 40 40 39 39 38 36 36 36 36 37 37 37 36 35 36 36 35 32 31 30 27 26 25 21 19 19 19 20 19 19 18 18 17 17 17 15 16 15 9 7 11 14 18 20 18 19 19 18 17 17 17 17 17 17 16 15 14 14
25 25 24 24 23 22 22 21 21 20 20 21 22 24 27 29 32 35 36 38 39 39 40 41 43 42 43 43 40 39 41 41 41 40 39 38 38 37 36 37 38 38 37 36 35 33 34 35 35 33 30 28 25 22 23 22 21 21 19 17 17 17 16 16 16 14 16 17 12 10 11 12 17 20 19 19 20 19 18 18 18 18 18 18 17 15 14 14
26 26 26 26 26 25 25 24 24 23 22 20 20 21 23 26 28 32 35 37 39 40 40 41 42 43 44 44 42 42 43 43 43 42 41 40 39 38 37 38 38 38 38 38 35 33 35 38 38 37 34 32 29 26 24 23 21 19 17 17 17 16 16 16 16 13 15 18 15 12 10 10 13 18 19 18 20 21 19 19 18 18 18 17 16 15 15 15
26 27 27 27 27 27 26 26 26 26 26 24 21 20 20 22 24 28 33 35 38 39 40 41 42 44 45 46 46 45 45 45 44 43 43 42 41 39 38 38 38 38 39 38 36 35 36 37 38 39 38 36 33 29 24 23 22 14 12 15 16 16 15 16 17 14 16 18 16 14 11 11 12 14 18 18 19 21 21 21 21 20 18 16 16 15 15 15
26 27 27 27 27 27 26 26 26 26 27 27 25 22 19 19 20 24 29 33 36 38 38 37 39 42 43 45 46 46 47 47 44 44 44 44 42 40 40 39 38 39 39 38 38 38 37 36 37 37 37 37 35 31 27 25 23 14 10 14 14 13 11 15 18 14 15 18 18 16 12 12 13 11 15 17 17 18 20 20 20 21 18 16 16 16 16 16
27 28 28 28 27 26 25 25 25 26 28 28 27 24 19 17 17 19 24 29 33 36 36 37 40 41 43 46 47 47 48 46 44 46 46 45 44 42 41 40 39 39 39 38 40 40 39 37 36 35 36 37 36 33 30 28 26 20 18 19 16 13 9 13 20 16 14 16 17 17 13 13 14 11 13 17 17 18 21 21 21 20 18 17 17 16 16 16
28 28 29 28 27 26 25 25 25 26 28 28 26 23 19 15 15 15 19 25 30 32 33 35 38 39 43 48 50 50 49 47 46 47 46 45 45 44 43 41 40 40 38 39 40 40 41 39 36 34 34 36 36 35 33 31 32 28 25 24 18 14 12 12 20 19 15 16 17 18 15 14 14 12 11 15 17 19 22 23 24 22 18 18 18 16 16 15
28 28 28 27 27 26 25 24 25 26 28 27 24 20 17 14 12 12 14 19 25 28 29 31 33 37 40 43 45 44 44 45 45 46 46 45 45 45 44 42 41 40 38 39 41 41 41 39 37 35 33 36 35 37 37 35 38 36 30 27 19 15 17 10 14 18 16 16 16 18 17 14 14 12 10 13 16 20 21 20 24 24 20 20 20 18 16 14
27 27 27 27 26 25 24 23 24 26 28 25 20 17 15 13 11 10 10 14 19 22 24 26 28 31 35 41 44 41 40 42 43 45 45 44 46 46 44 44 42 41 40 40 40 41 41 38 38 36 33 35 34 36 39 38 40 38 33 29 19 16 18 10 11 18 16 17 15 15 17 15 14 13 12 13 15 19 20 18 20 21 19 21 22 20 17 14
26 26 26 26 26 25 23 22 24 27 26 21 17 15 14 13 11 9 8 10 14 17 20 20 21 26 33 39 40 37 40 43 44 46 44 43 46 46 44 44 42 41 41 41 41 41 40 39 38 37 35 35 34 36 37 39 41 38 36 32 17 12 16 12 11 13 10 14 17 15 15 15 15 16 15 15 15 16 18 18 18 19 18 21 23 20 17 15
26 25 25 26 26 25 23 21 23 26 24 18 15 14 13 12 10 6 5 6 8 12 15 15 17 24 29 30 31 33 37 41 44 47 45 44 47 46 45 44 42 42 41 40 41 41 40 40 37 37 39 37 34 34 36 38 40 37 36 35 23 11 13 14 12 11 8 10 15 14 10 13 15 16 17 16 17 17 17 18 20 20 18 18 21 19 16 16
25 25 25 26 26 25 22 21 23 26 23 16 13 14 12 10 7 3 1 3 7 8 8 10 13 19 21 23 29 32 29 33 41 46 45 44 47 47 45 45 42 42 42 40 43 43 40 39 39 40 40 39 37 35 38 39 38 35 31 33 33 19 14 20 18 15 13 8 12 14 10 16 18 15 16 15 16 18 18 19 20 22 20 18 19 19 16 17
24 24 25 25 26 25 23 21 23 25 21 14 12 13 11 9 6 1 4 5 5 5 4 7 9 13 17 20 25 27 22 25 33 39 44 44 45 46 43 45 45 42 42 42 41 42 39 36 39 42 39 39 42 39 38 38 35 36 30 25 32 28 22 24 18 13 15 13 14 19 15 18 22 18 18 17 16 18 19 19 19 19 20 18 18 19 18 19
23 24 24 25 25 25 23 20 22 24 19 13 11 12 10 8 4 3 3 3 0 3 4 5 7 10 14 15 22 28 24 25 24 28 41 44 43 47 42 41 45 42 41 41 38 37 37 35 38 42 40 42 46 41 36 36 34 34 32 24 24 29 31 26 12 8 17 20 19 19 17 16 23 23 20 21 21 20 19 20 20 19 18 15 15 18 19 19
22 24 24 24 25 25 23 20 21 23 18 12 11 11 10 6 2 2 2 4 4 1 4 5 6 9 12 14 24 29 20 20 22 23 36 42 41 45 45 44 47 43 38 35 31 27 28 36 42 45 46 47 45 39 37 37 33 32 35 30 20 21 30 28 13 9 18 23 19 16 18 18 24 27 22 21 23 21 21 22 21 20 19 15 14 15 18 18
21 23 24 24 24 24 22 18 19 21 17 12 11 11 8 4 3 5 3 3 2 2 4 4 5 7 13 16 20 26 17 14 19 22 31 41 40 40 44 45 46 46 38 27 25 26 25 35 47 47 46 46 43 39 39 38 33 33 35 31 21 17 26 26 17 16 21 19 14 14 16 16 23 29 25 23 25 22 21 20 20 21 20 17 14 12 17 19
20 22 24 24 23 22 21 18 17 19 17 12 10 8 5 3 6 7 5 4 1 3 2 2 3 5 13 14 13 19 17 11 17 23 28 37 39 39 43 43 42 46 39 23 23 32 30 31 43 48 44 43 41 37 38 39 38 36 32 31 28 19 22 25 19 22 24 18 14 15 17 19 27 31 27 25 26 24 21 18 18 20 20 19 17 14 15 18
19 21 23 24 22 21 20 18 16 18 17 11 8 8 6 5 8 8 6 3 3 5 2 2 2 5 10 11 11 16 15 10 15 21 26 33 36 36 41 41 37 39 33 22 23 27 25 23 30 43 45 42 42 38 35 38 42 40 31 30 31 20 19 26 22 21 25 19 16 16 18 27 33 32 28 26 27 25 23 20 20 20 20 21 21 20 18 16
18 20 22 23 22 21 20 17 15 16 15 10 6 8 7 6 7 9 6 2 1 4 2 3 4 6 10 11 13 15 14 9 10 15 20 27 31 30 34 35 31 30 24 18 21 21 22 24 23 35 45 45 46 41 30 28 36 44 37 28 27 22 17 19 18 20 22 18 15 18 21 31 34 32 30 28 27 26 26 25 23 21 21 23 24 24 22 18
16 19 21 22 22 19 19 17 14 14 13 8 7 8 7 5 5 5 2 2 2 3 1 5 7 7 9 12 14 12 12 10 11 14 14 16 22 22 24 27 27 30 24 15 18 21 22 24 22 27 37 43 46 39 29 24 28 37 39 29 21 20 15 11 14 17 17 17 18 20 26 33 33 33 33 29 26 25 27 28 26 23 21 23 24 24 22 20
15 17 19 21 20 18 18 17 15 13 12 9 8 8 6 5 5 2 2 4 3 4 5 4 6 7 9 13 14 13 13 11 12 17 16 14 22 22 17 16 22 32 32 25 27 27 20 20 21 26 32 41 45 38 32 29 28 27 32 33 25 18 16 14 15 16 15 17 20 25 32 35 34 32 32 31 28 26 27 28 28 26 22 20 22 24 23 21
14 15 16 18 19 18 18 16 15 13 11 10 8 8 7 6 6 4 2 3 4 7 7 4 6 9 11 12 14 16 17 13 12 18 18 17 25 31 26 21 25 35 37 33 34 33 22 18 23 28 30 36 41 41 35 30 30 26 23 29 31 24 23 22 17 17 18 19 21 27 32 34 35 35 34 33 31 30 30 29 29 28 25 22 22 23 24 23
13 14 15 17 19 18 16 15 15 12 10 11 10 9 9 7 6 4 3 3 6 10 7 4 7 9 11 10 10 15 17 15 14 19 22 19 22 32 31 27 32 37 36 35 35 34 27 19 26 33 30 33 38 43 42 35 32 28 20 23 32 30 29 29 25 22 21 20 22 26 28 30 34 37 38 38 34 33 32 29 29 30 27 24 22 22 24 24
12 12 12 15 17 17 15 14 14 12 11 11 10 10 9 8 6 3 2 2 5 11 8 4 5 4 5 7 10 12 12 14 16 18 22 18 19 31 33 28 31 34 35 36 37 36 26 16 23 31 30 34 36 38 44 44 39 33 29 31 35 35 31 28 26 26 22 18 22 28 30 32 35 35 38 40 39 39 35 29 29 30 28 25 22 23 24 24
12 11 10 12 15 16 15 12 12 14 14 13 9 8 9 8 7 4 3 5 5 6 9 8 9 6 3 5 10 12 8 11 15 15 20 18 16 27 33 31 30 31 34 36 38 35 23 10 13 19 23 35 41 40 41 43 42 37 31 29 31 35 34 27 22 24 23 20 23 28 32 35 37 36 37 38 40 40 35 28 28 30 29 26 23 24 24 24
11 9 9 11 14 15 14 11 12 14 14 12 9 7 7 7 7 6 5 5 6 5 4 12 10 6 6 5 9 13 10 12 16 14 17 19 16 22 30 33 31 30 33 38 39 35 24 15 11 9 13 25 34 39 40 41 44 40 31 26 25 29 31 25 22 22 21 22 24 25 34 37 36 35 36 37 38 37 33 29 30 30 30 28 25 25 25 25
10 8 8 9 12 13 13 11 11 10 10 10 9 6 6 6 6 6 6 5 5 8 3 10 8 5 10 7 6 12 11 12 16 14 14 16 17 20 25 29 31 32 37 41 39 35 31 25 16 8 5 9 13 27 40 45 48 46 42 37 29 29 29 21 18 23 24 24 24 24 32 37 35 34 36 37 36 34 31 30 31 31 31 29 27 27 27 26
8 8 7 7 9 12 12 12 10 8 8 9 9 7 5 5 5 5 5 5 3 5 5 4 3 5 12 9 7 12 10 10 14 10 9 12 15 19 22 27 32 35 41 45 41 38 36 31 22 16 14 10 9 26 42 44 46 48 47 43 32 28 29 21 17 24 25 24 26 28 30 32 33 33 37 38 35 32 30 31 32 31 30 30 29 29 29 28
7 7 6 6 7 9 11 12 10 8 7 8 8 8 7 5 4 4 3 4 3 2 3 2 1 3 10 12 11 14 11 12 14 9 5 7 12 17 21 26 31 34 39 44 43 41 39 34 28 23 18 11 13 28 38 40 44 44 43 44 37 29 29 29 28 30 29 28 30 33 34 34 33 32 36 37 35 32 29 31 33 31 30 30 30 30 30 30
7 6 5 4 5 7 9 10 9 8 7 7 7 8 8 6 4 4 2 2 2 1 1 2 2 2 5 9 11 14 12 10 10 9 7 6 10 16 20 23 29 31 32 36 38 40 42 39 35 31 23 18 17 22 25 31 38 39 39 41 37 31 32 36 37 35 35 35 35 39 39 37 34 34 36 36 34 32 29 29 31 31 31 31 31 31 32 32
6 5 4 3 3 4 7 8 9 9 7 6 6 6 7 7 6 5 3 2 1 1 1 2 3 2 4 6 7 12 15 11 7 9 10 8 9 14 18 20 25 27 29 32 35 38 41 41 40 40 36 30 25 21 23 29 32 36 42 41 36 35 36 39 41 39 38 37 37 41 41 37 35 35 36 37 35 33 31 30 30 31 31 32 33 33 33 33
6 6 4 3 3 3 4 6 7 9 8 6 6 5 6 6 6 6 5 3 2 2 3 3 3 4 4 6 6 8 13 14 11 11 12 10 10 13 16 19 21 24 27 31 35 37 38 36 35 38 41 37 31 26 27 31 28 28 35 38 39 42 41 41 43 40 37 37 36 38 42 40 38 37 36 36 34 31 30 31 33 32 31 32 33 34 34 34
5 5 4 3 3 3 3 4 5 7 8 7 6 5 5 5 5 6 6 5 4 3 3 4 4 5 4 6 9 9 10 13 14 14 13 13 12 12 14 17 19 22 25 29 33 35 35 32 29 31 37 38 35 29 27 30 28 22 23 28 34 42 44 45 45 40 35 37 39 38 42 44 42 40 39 37 34 30 28 30 33 33 31 31 33 35 35 36
5 5 5 4 3 3 3 3 4 6 7 7 7 6 4 5 5 5 5 5 5 5 4 3 4 6 6 7 9 9 9 11 13 14 13 14 13 12 14 17 18 20 23 26 29 31 31 31 30 30 34 36 36 32 26 27 30 26 25 30 37 43 47 48 46 40 33 36 41 42 42 45 43 42 43 41 37 33 29 28 30 31 31 32 33 35 37 37
5 6 5 5 4 3 4 4 3 4 6 7 7 7 6 5 4 4 4 5 4 5 5 4 3 4 6 9 10 8 8 9 11 12 12 13 15 15 15 15 16 18 20 21 24 26 28 31 33 33 35 38 39 38 31 28 30 31 29 33 42 46 46 47 47 44 41 43 47 47 45 45 44 43 44 44 40 36 33 31 30 28 29 32 34 35 37 38
6 6 6 5 5 4 4 5 5 4 5 6 7 7 7 6 5 4 3 4 4 4 4 4 4 4 3 6 9 10 9 9 10 11 13 14 14 14 14 13 14 16 19 20 20 22 25 28 30 32 35 36 37 38 36 32 31 32 30 32 39 41 41 43 46 48 49 50 50 49 48 47 45 44 45 44 42 40 37 35 34 31 29 30 33 36 38 39
6 6 7 6 5 4 3 4 5 5 4 5 6 7 7 7 7 5 4 4 4 4 4 4 4 4 4 3 5 9 11 11 10 11 14 14 13 14 14 13 15 16 17 18 19 20 23 25 26 28 31 34 31 29 34 38 36 35 33 33 36 38 37 38 42 47 49 49 48 49 48 48 47 47 46 44 44 42 40 39 39 37 34 32 33 35 38 40
Wind_Direction
285 283 282 280 278 276 274 272 270 268 266 263 260 256 254 251 247 241 236 236 238 240 239 238 237 235 236 235 231 228 223 214 204 198 196 193 194 199 202 200 200 200 198 200 201 202 203 205 205 203 202 198 197 200 200 202 204 202 215 324 145 121 63 26 27 41 63 103 131 138 142 148 147 147 149 160 163 160 173 168 162 173 164 158 165 166 160 152
286 284 282 279 277 275 273 271 269 268 266 263 261 258 255 252 249 246 240 235 233 234 236 236 236 235 234 234 231 228 225 218 208 202 198 197 200 202 204 201 200 201 200 200 201 201 203 205 205 203 202 199 198 199 198 201 205 202 196 312 343 121 101 54 50 67 96 116 129 139 145 152 153 153 156 165 172 174 181 173 165 170 170 159 152 168 171 159
288 286 284 282 278 275 272 270 268 266 265 263 261 258 255 253 250 247 244 239 234 230 231 233 234 235 233 233 232 228 226 221 214 206 200 202 204 205 208 206 202 202 202 203 203 202 203 204 204 204 202 200 200 198 200 200 198 201 193 196 324 109 101 74 68 84 124 136 142 151 154 158 157 157 164 170 174 176 172 162 166 173 170 162 152 159 174 165
291 289 286 284 281 278 274 271 268 265 263 262 260 258 256 254 251 248 245 242 238 233 228 228 230 232 233 232 231 229 226 224 218 210 204 205 207 208 212 212 207 204 204 205 204 203 204 203 202 203 201 200 200 197 202 203 192 197 199 196 223 187 103 95 76 86 140 160 163 165 160 159 156 160 168 166 173 180 176 169 169 178 175 167 160 155 167 171
292 291 288 285 282 279 276 273 270 266 263 260 258 257 256 254 252 249 247 244 240 237 232 227 226 228 231 232 231 229 227 225 220 216 210 207 208 209 214 215 212 208 207 206 204 204 204 203 202 201 200 198 199 197 200 204 198 197 204 202 194 197 172 143 112 107 145 175 183 182 170 165 162 169 171 166 178 179 183 181 169 174 180 175 171 160 165 173
291 289 287 284 281 279 276 274 272 269 265 261 258 255 254 253 252 250 248 245 242 239 235 231 226 225 227 230 231 230 229 224 217 221 216 210 210 209 213 215 215 212 209 208 206 205 203 203 202 199 198 196 198 198 197 203 203 198 203 198 171 180 206 177 162 177 167 174 193 194 187 183 175 175 179 176 175 167 174 177 163 169 182 184 181 167 165 173
291 288 285 282 280 278 276 274 272 270 267 264 260 257 254 251 250 249 247 246 243 240 237 234 229 226 225 226 230 229 231 224 213 221 218 212 213 211 212 214 214 214 212 211 209 207 205 202 201 200 199 197 198 199 197 199 202 202 202 199 182 189 222 222 205 220 232 193 202 204 197 195 185 178 185 184 176 174 184 182 166 166 179 192 191 174 166 172
294 291 288 285 282 279 277 274 272 270 267 265 263 259 255 252 249 247 246 245 243 241 239 236 232 229 226 224 227 227 231 224 213 221 219 213 215 212 213 212 211 213 212 212 210 209 207 203 202 201 199 199 200 200 199 196 200 207 208 205 201 205 231 244 222 210 228 223 225 217 205 202 193 182 185 188 184 186 191 186 172 168 178 194 195 180 167 168
295 292 290 288 285 283 279 276 273 270 268 265 263 260 256 253 250 247 245 243 242 241 239 238 234 232 229 226 225 226 229 223 213 222 221 215 216 213 212 211 210 211 210 211 211 210 209 206 205 204 202 203 203 201 199 195 199 207 213 212 206 204 226 253 237 215 228 242 257 224 207 205 200 189 187 191 193 190 184 181 177 175 181 191 194 182 169 172
298 294 292 289 287 285 282 279 276 272 269 266 262 260 257 253 249 247 245 242 241 240 238 238 236 233 231 228 227 226 226 220 215 223 222 217 217 215 213 212 210 211 210 210 211 211 210 208 208 208 208 209 207 206 203 201 204 207 212 215 210 205 215 246 249 234 230 243 263 239 207 201 195 189 192 194 193 189 182 182 181 180 184 187 191 186 173 176
302 298 295 292 289 286 283 280 278 274 269 266 262 259 256 253 249 246 244 242 240 238 237 236 235 234 232 230 229 227 223 219 219 223 221 218 217 217 215 212 211 212 211 210 210 210 210 209 210 211 212 212 210 209 211 209 208 208 209 212 213 210 212 229 243 241 236 236 256 250 212 197 191 191 195 193 190 189 186 186 185 181 185 185 184 187 180 175
306 302 298 295 291 288 285 281 278 276 271 266 262 258 256 253 250 246 243 240 238 236 235 235 234 233 233 231 230 227 220 218 219 222 221 218 217 217 216 214 212 212 212 211 211 211 211 211 212 213 212 211 206 205 211 211 208 207 207 210 210 207 210 225 235 239 241 242 260 260 217 199 190 190 192 191 192 195 191 186 185 183 186 187 180 184 185 175
310 307 304 300 296 292 288 284 280 277 274 269 264 260 256 253 250 247 244 240 236 234 233 233 233 232 231 231 230 226 221 218 218 220 220 218 217 217 216 216 214 213 213 212 212 212 213 212 212 214 213 210 207 207 211 207 205 205 206 208 206 203 210 221 228 235 239 239 255 254 216 200 192 189 189 191 194 195 192 184 183 186 187 188 184 185 184 175
315 312 309 306 302 298 293 289 284 278 274 270 266 261 256 253 250 247 245 241 237 233 232 231 231 231 230 231 231 228 224 220 219 220 219 217 217 216 216 217 216 215 215 214 214 214 214 214 212 214 213 211 213 213 211 206 203 203 207 207 202 203 213 217 220 228 232 233 248 237 208 195 191 193 190 193 196 192 189 184 182 187 189 190 190 190 184 175
320 318 316 312 309 305 301 296 290 283 277 272 268 263 257 252 248 246 244 242 238 234 231 230 229 229 229 230 229 227 225 221 219 219 219 218 217 216 216 216 217 217 216 215 214 215 216 214 213 215 213 212 216 211 206 205 203 205 208 205 201 204 213 218 218 224 229 233 243 219 198 187 190 198 192 189 195 193 190 185 185 188 189 193 193 192 190 181
325 324 322 320 317 313 309 303 297 290 283 276 270 264 259 253 249 245 242 240 238 234 231 229 228 227 227 228 227 225 226 222 220 219 218 218 217 215 215 216 216 217 217 216 214 215 216 214 214 216 211 211 212 204 202 204 204 209 210 206 204 206 214 218 218 223 224 227 233 215 202 192 197 204 194 190 196 196 197 189 186 190 190 196 196 192 193 187
330 329 328 327 324 321 318 313 307 300 292 284 276 269 261 254 250 246 242 239 237 235 231 228 228 227 227 227 224 223 224 223 221 219 218 218 217 215 215 216 216 217 218 217 215 213 213 213 213 214 211 211 208 200 202 203 205 212 212 211 210 208 217 221 219 225 223 224 226 216 212 206 208 208 198 200 201 194 198 194 188 192 193 197 197 193 193 192
334 334 334 333 331 329 327 323 318 312 305 298 287 277 267 258 251 246 243 239 236 235 231 228 226 226 225 224 222 220 221 221 219 218 218 217 218 216 214 215 215 216 217 218 215 212 212 212 212 211 210 209 208 204 201 199 204 215 218 220 222 217 220 226 227 230 224 222 225 221 224 228 220 208 201 205 201 192 194 196 193 195 197 200 199 196 195 196
338 338 338 338 336 334 331 328 324 320 317 312 305 294 279 267 255 247 244 240 237 235 232 229 226 225 225 223 221 218 218 219 218 217 217 217 217 216 215 215 215 215 217 217 216 215 214 212 211 211 209 207 205 201 196 198 202 212 231 232 231 227 227 234 232 229 225 221 225 228 226 233 234 211 200 202 199 194 194 195 192 189 192 203 202 198 200 199
341 342 342 341 339 336 333 330 327 325 323 321 318 310 297 279 263 250 244 242 238 235 232 231 227 225 225 224 222 220 219 218 215 216 216 216 216 215 215 215 214 215 215 216 216 216 216 215 213 212 211 210 208 201 197 203 200 188 216 234 238 233 231 240 231 225 234 226 224 229 221 227 240 220 199 200 203 201 200 200 196 192 192 201 202 199 203 204
343 344 345 344 342 338 335 332 331 330 328 326 324 318 310 293 273 255 244 242 240 236 232 229 226 223 223 222 221 220 220 218 215 215 215 214 214 214 215 214 214 214 214 214 216 216 216 215 214 212 212 213 213 210 203 208 205 187 198 212 219 220 210 239 237 229 240 233 224 227 225 228 233 222 200 199 207 209 207 209 208 206 203 201 204 203 205 207
347 347 348 347 344 341 338 336 335 333 331 330 327 323 317 303 284 265 247 240 239 238 235 231 227 224 223 222 220 219 218 215 214 215 213 213 213 213 214 213 214 214 213 214 214 215 216 214 214 212 213 213 213 213 207 209 211 201 200 197 195 206 201 230 244 233 228 231 230 227 230 237 229 221 207 202 208 210 211 215 212 210 207 205 206 207 209 210
349 350 351 349 346 344 342 341 338 335 334 332 330 327 321 312 296 277 255 242 241 241 239 234 227 225 224 223 223 221 219 217 215 214 212 211 212 212 212 212 213 213 212 214 214 215 215 214 214 212 213 213 211 211 209 209 213 209 200 188 181 205 203 209 254 250 228 216 225 226 227 238 233 222 213 211 215 215 217 216 210 206 203 205 206 206 210 208
351 353 352 350 350 347 345 343 339 339 337 333 331 329 326 321 308 290 266 247 244 243 242 239 231 226 224 223 221 216 215 215 216 216 212 210 211 211 211 211 211 211 212 213 213 214 214 213 215 213 215 216 211 210 210 210 215 213 203 191 185 204 200 189 250 258 241 216 217 226 230 235 236 231 218 212 216 215 215 209 204 208 208 209 208 205 208 205
353 354 353 353 352 348 346 344 342 341 337 334 334 334 335 330 318 301 273 252 249 246 244 243 234 226 224 224 221 214 211 210 211 214 211 209 211 210 209 210 209 210 211 213 213 212 213 212 213 213 215 218 213 210 210 212 214 213 209 204 195 200 196 189 222 233 232 228 221 219 233 238 234 237 230 220 220 212 206 207 209 214 215 214 210 205 207 205
354 355 354 354 352 349 348 346 345 343 340 340 341 342 345 336 326 314 278 258 246 238 240 242 233 227 225 223 220 214 212 210 209 210 207 207 210 208 208 209 208 210 210 213 215 212 212 210 210 212 214 216 214 211 213 215 214 211 213 215 210 201 193 200 219 213 207 242 235 218 236 252 238 236 238 225 221 217 209 213 217 216 217 216 208 204 206 207
356 355 355 354 353 351 349 348 347 346 345 347 346 347 348 338 334 318 236 192 202 218 246 247 236 233 224 218 215 207 207 214 213 210 204 204 209 208 207 206 206 209 209 212 215 212 211 210 209 210 212 215 212 211 215 215 212 209 211 220 217 204 195 213 222 217 205 207 235 235 239 251 246 234 233 222 215 222 220 218 216 215 217 210 203 205 208 211
359 357 356 354 353 352 351 352 350 349 350 350 350 348 344 340 334 247 129 111 184 221 289 268 248 239 224 219 211 193 192 206 212 215 206 202 207 206 207 207 203 205 209 213 216 214 210 209 213 210 209 215 213 210 215 214 211 207 204 217 219 207 201 211 211 214 211 180 206 239 235 239 248 238 229 226 221 226 226 225 222 216 212 201 200 211 211 214
2 360 358 355 353 353 354 353 351 352 353 355 354 345 340 341 324 218 141 56 289 232 292 281 255 237 220 211 196 186 192 195 197 214 209 203 207 203 203 208 204 202 207 211 216 216 210 209 214 212 208 215 214 209 213 214 210 208 205 207 216 214 209 206 199 208 214 188 188 226 230 230 246 242 232 230 230 232 230 233 235 227 220 209 209 219 213 213
4 3 0 356 354 354 355 355 353 354 355 358 349 335 335 332 322 137 127 24 31 233 278 274 244 229 208 193 191 191 193 187 190 208 203 200 206 205 204 205 203 202 202 210 216 211 209 212 214 211 209 214 213 208 212 213 206 205 208 205 204 214 210 206 208 198 202 197 181 197 223 238 250 243 236 238 237 236 235 240 241 234 231 225 225 228 216 213
4 4 2 357 355 355 356 357 356 356 354 350 344 340 342 347 64 82 56 15 58 216 277 272 244 223 191 182 196 199 188 179 197 205 198 197 201 205 208 207 205 203 200 207 210 197 201 215 216 213 210 213 212 208 211 212 207 204 207 207 201 204 204 203 213 202 193 199 188 184 210 240 258 249 241 242 243 239 238 243 242 236 232 227 227 229 217 215
4 4 1 359 357 355 358 360 357 358 353 346 355 8 20 58 72 62 32 18 359 270 292 243 230 183 175 176 189 192 184 193 209 203 198 198 198 200 205 207 208 207 204 205 201 196 203 214 217 216 211 212 212 210 212 211 209 206 204 207 208 203 202 202 211 214 204 202 201 197 207 225 243 245 237 237 240 239 240 243 240 236 232 226 224 225 220 218
3 4 2 359 357 357 359 1 359 359 355 351 10 28 40 58 64 58 35 9 306 295 288 173 174 153 159 166 174 173 172 199 216 209 203 198 197 200 202 202 205 206 206 210 204 199 209 218 218 215 209 208 209 208 211 211 209 209 206 210 211 204 207 208 207 215 216 212 196 188 213 231 236 237 234 236 238 237 240 245 241 233 228 226 228 231 232 228
1 3 1 359 358 358 0 2 1 359 358 360 24 44 51 51 67 69 37 339 287 312 300 132 141 162 153 162 183 179 170 186 209 205 204 200 198 203 202 199 202 198 192 210 211 198 212 225 225 216 207 206 208 204 201 208 213 212 209 214 215 205 210 223 222 219 222 220 193 180 211 233 237 239 239 239 238 237 239 243 243 236 228 225 228 233 237 237
357 360 360 359 358 358 0 4 3 358 356 3 31 46 47 32 51 72 23 257 134 48 73 141 145 161 169 179 188 182 173 190 199 173 169 192 197 202 206 205 204 190 177 197 202 193 214 227 233 229 211 206 210 202 189 196 212 214 210 210 213 203 202 229 236 225 224 225 207 196 213 227 234 240 241 237 234 234 235 239 245 246 240 232 229 232 235 236
350 356 359 357 357 359 2 6 5 354 353 9 31 34 22 15 14 1 247 225 182 114 125 163 160 162 187 188 179 177 176 187 192 165 155 185 192 190 195 202 204 192 186 189 178 177 206 223 235 240 219 209 209 202 195 196 198 208 212 211 209 198 193 214 233 225 216 221 218 215 220 226 232 239 242 239 232 230 236 242 245 247 250 244 234 231 231 232
339 350 357 355 358 4 3 6 5 357 3 15 26 31 18 3 350 327 260 219 193 153 142 169 179 178 188 180 175 183 177 171 183 173 173 195 197 194 188 183 197 198 198 196 175 167 179 200 225 234 225 217 208 201 203 199 192 201 215 221 220 204 189 194 213 223 219 215 221 231 233 233 236 239 244 244 237 236 242 245 244 244 249 252 244 238 235 234
329 341 354 356 0 5 3 6 5 5 22 24 25 40 28 356 333 318 281 253 197 176 164 164 181 184 177 168 178 186 173 168 182 184 187 198 204 204 197 187 195 197 198 199 183 172 168 180 216 224 224 223 211 205 208 202 196 196 194 211 218 210 200 193 190 201 211 210 217 234 243 242 242 243 245 248 246 244 244 243 243 242 245 251 251 247 244 242
325 334 352 357 0 6 6 7 4 5 19 21 29 40 17 348 341 332 316 344 169 184 204 188 143 155 178 174 172 179 179 171 176 191 197 194 204 212 205 196 196 193 191 189 184 181 174 178 217 221 222 224 215 209 211 208 203 196 189 197 205 206 205 202 197 193 192 198 215 230 236 234 235 239 241 244 245 244 242 241 243 243 241 245 247 245 245 247
324 329 351 360 3 7 7 8 9 9 8 4 12 16 351 342 351 360 35 46 89 171 219 196 133 121 204 193 158 161 177 168 171 203 208 192 201 212 205 201 200 193 188 184 182 183 174 167 222 222 219 222 217 209 209 212 210 204 201 203 207 207 201 198 205 199 190 192 208 229 236 230 230 235 238 241 241 242 242 244 247 244 238 239 242 242 243 246
325 331 353 360 3 8 6 11 18 14 6 358 357 350 338 344 354 5 41 51 52 52 205 190 162 157 185 166 148 155 167 182 184 202 208 200 209 211 203 202 201 193 186 181 181 184 174 168 200 217 220 225 222 213 208 210 210 208 208 207 210 212 202 198 208 210 207 196 194 227 244 239 235 238 242 244 243 243 244 245 247 245 239 236 237 240 241 243
329 339 354 355 1 6 5 17 27 15 3 357 349 337 332 348 357 4 32 46 45 39 75 179 184 202 186 159 135 150 161 195 197 194 203 208 215 214 204 199 195 191 186 181 183 188 183 179 174 153 185 214 215 213 211 211 211 210 211 209 210 210 202 197 209 218 218 206 203 231 244 242 242 241 243 245 244 245 247 243 243 244 241 238 236 237 239 242
334 344 349 352 360 2 5 18 24 12 7 2 351 346 334 338 359 4 22 39 54 50 64 146 169 202 200 193 164 159 169 193 193 197 212 207 207 207 202 195 192 191 190 188 190 191 189 193 189 172 174 169 180 209 212 213 215 216 216 213 208 208 205 199 212 222 216 209 224 240 239 241 247 243 241 244 244 247 247 241 240 242 242 240 237 236 236 240
336 340 338 348 356 358 7 18 14 359 3 6 359 1 354 335 353 3 12 31 39 72 82 138 174 185 204 210 192 180 184 189 190 202 215 194 195 196 194 195 194 195 197 198 201 199 195 200 204 198 186 177 208 219 214 214 216 216 219 218 210 203 201 200 210 220 210 204 223 236 235 239 245 242 242 243 243 245 243 238 237 237 237 238 237 237 236 237
329 330 328 343 350 354 5 14 11 358 356 3 2 7 8 358 356 355 346 18 33 59 107 186 207 177 192 207 205 197 195 193 192 203 213 204 196 193 194 196 196 197 200 202 206 208 205 204 207 208 202 193 213 226 221 219 219 214 216 220 214 205 201 201 207 214 208 205 217 226 229 234 238 239 242 242 241 242 239 237 237 235 234 234 235 237 238 238
317 320 324 335 337 348 359 3 7 6 359 360 4 3 6 7 4 3 357 336 309 287 253 198 200 212 202 201 208 207 207 210 203 199 207 209 198 195 196 197 199 201 201 201 204 209 212 213 214 218 217 210 208 216 219 218 218 218 217 215 211 208 203 201 207 211 209 211 221 224 223 231 236 235 238 241 242 242 239 236 235 234 232 231 232 234 237 238
308 312 318 325 313 318 345 352 0 10 8 3 2 360 359 2 1 4 7 357 325 280 269 249 215 218 222 215 216 210 208 214 213 203 204 206 202 198 195 196 201 204 204 205 207 209 212 216 219 222 223 221 214 212 218 217 213 219 222 218 218 218 210 205 208 210 208 214 226 226 220 226 236 234 234 238 238 238 237 235 234 234 232 231 231 232 234 236
296 300 301 302 294 282 308 339 351 5 10 7 5 1 351 352 354 355 0 6 360 330 290 273 250 236 233 223 222 222 214 212 210 206 207 210 210 206 202 200 200 204 208 209 211 214 214 213 215 216 218 222 221 218 222 220 213 210 211 214 223 225 220 218 217 212 211 218 225 224 220 223 232 234 233 234 232 231 233 233 234 235 233 231 230 229 231 234
284 290 295 291 286 277 276 303 336 351 1 7 11 13 3 350 347 347 351 358 3 359 345 306 274 254 243 238 234 232 227 221 217 214 213 215 216 215 211 208 204 206 210 211 213 215 214 211 212 213 214 218 219 218 219 216 209 203 199 209 223 223 219 221 219 213 216 226 225 223 223 225 230 234 233 233 232 231 230 232 234 234 232 230 229 228 229 232
275 281 290 286 281 282 272 274 298 328 345 358 6 13 18 7 350 341 343 346 350 357 360 353 328 283 250 249 251 243 232 227 223 219 221 223 222 222 220 214 211 210 210 211 213 213 212 215 217 219 220 221 219 217 217 215 210 205 206 217 226 226 222 222 217 211 216 226 227 227 230 230 230 233 233 234 235 233 231 231 232 233 232 230 228 226 226 228
268 276 280 279 276 276 271 268 268 285 321 343 353 3 15 18 9 354 338 338 336 340 349 354 356 348 296 261 254 249 242 235 225 220 226 229 226 228 229 221 215 213 211 211 213 212 214 218 220 222 225 226 225 222 221 222 218 211 214 225 227 226 227 226 220 215 220 228 231 231 233 233 233 235 234 235 238 237 234 232 232 232 231 231 230 227 225 226
258 270 273 271 269 271 272 273 267 265 288 322 337 349 359 8 13 12 359 344 332 323 328 335 348 359 357 328 268 250 245 239 231 227 231 233 231 232 233 227 222 219 215 213 215 216 217 218 218 220 223 225 226 224 223 225 224 219 223 233 232 227 227 229 225 221 223 228 231 233 234 234 235 236 236 236 238 240 238 235 234 233 231 230 231 230 228 227
Height
5847 5846 5846 5846 5845 5845 5845 5845 5845 5845 5845 5845 5846 5846 5846 5846 5846 5846 5847 5848 5849 5850 5850 5851 5852 5853 5854 5854 5855 5856 5858 5859 5861 5862 5864 5866 5867 5868 5869 5871 5872 5874 5875 5877 5879 5880 5881 5882 5884 5885 5886 5887 5888 5889 5890 5890 5890 5891 5893 5893 5892 5891 5892 5892 5892 5892 5891 5890 5890 5891 5892 5893 5895 5897 5899 5899 5900 5902 5903 5904 5905 5905 5906 5905 5906 5907 5907 5907
5844 5843 5843 5842 5842 5842 5842 5842 5842 5842 5842 5843 5843 5843 5843 5843 5844 5844 5845 5845 5846 5847 5848 5849 5850 5851 5852 5853 5854 5855 5856 5858 5860 5861 5863 5865 5866 5866 5868 5870 5871 5873 5874 5876 5877 5879 5880 5881 5883 5884 5886 5887 5887 5888 5890 5890 5890 5892 5893 5893 5892 5891 5891 5892 5892 5892 5893 5893 5894 5894 5895 5895 5896 5898 5900 5901 5902 5904 5905 5905 5905 5906 5906 5906 5907 5907 5908 5908
5841 5840 5840 5839 5839 5838 5838 5838 5838 5839 5839 5839 5840 5840 5841 5841 5841 5841 5842 5843 5843 5844 5845 5846 5848 5849 5849 5851 5852 5853 5854 5856 5858 5859 5862 5863 5864 5865 5866 5868 5870 5871 5873 5874 5876 5878 5879 5881 5882 5884 5885 5886 5887 5888 5889 5890 5890 5891 5892 5892 5893 5892 5892 5893 5892 5893 5895 5895 5896 5896 5896 5897 5898 5899 5900 5902 5903 5905 5906 5906 5906 5907 5907 5908 5908 5908 5909 5909
5839 5838 5837 5836 5835 5835 5835 5834 5835 5835 5835 5836 5836 5837 5837 5838 5838 5839 5840 5840 5841 5842 5843 5844 5845 5846 5847 5848 5849 5851 5852 5854 5855 5858 5860 5861 5862 5864 5865 5866 5868 5870 5872 5873 5876 5877 5878 5880 5882 5883 5884 5885 5886 5887 5888 5889 5890 5891 5892 5892 5892 5892 5892 5894 5894 5894 5896 5896 5897 5897 5897 5898 5900 5900 5901 5902 5904 5905 5906 5906 5907 5908 5909 5909 5909 5909 5910 5910
5836 5835 5834 5833 5832 5831 5831 5831 5831 5831 5831 5831 5832 5833 5834 5835 5835 5836 5837 5837 5838 5839 5840 5841 5842 5844 5845 5846 5847 5849 5850 5851 5854 5856 5858 5859 5860 5862 5863 5864 5867 5869 5870 5872 5874 5876 5878 5879 5880 5882 5883 5885 5885 5887 5888 5888 5890 5891 5892 5892 5891 5892 5893 5895 5895 5894 5895 5896 5897 5897 5898 5899 5900 5901 5902 5903 5905 5905 5907 5907 5907 5908 5909 5910 5910 5910 5911 5911
5833 5832 5830 5829 5829 5828 5828 5828 5827 5827 5827 5827 5828 5829 5830 5831 5832 5833 5833 5834 5835 5836 5838 5838 5840 5841 5842 5843 5845 5846 5847 5850 5854 5854 5855 5857 5858 5860 5861 5863 5865 5867 5869 5871 5873 5875 5876 5878 5879 5881 5882 5884 5885 5886 5887 5888 5890 5891 5892 5892 5892 5893 5893 5895 5896 5896 5896 5897 5898 5898 5898 5899 5901 5903 5903 5905 5906 5907 5908 5908 5907 5908 5910 5911 5911 5911 5911 5911
5830 5829 5827 5826 5825 5825 5825 5824 5824 5823 5823 5823 5824 5825 5826 5826 5827 5828 5829 5830 5831 5833 5834 5835 5837 5838 5839 5841 5842 5843 5844 5847 5851 5850 5852 5855 5856 5858 5859 5861 5864 5866 5868 5869 5871 5873 5875 5877 5878 5879 5881 5882 5883 5885 5886 5888 5890 5891 5892 5892 5893 5894 5893 5894 5896 5897 5897 5898 5898 5898 5899 5900 5902 5903 5904 5905 5906 5908 5909 5908 5907 5908 5910 5911 5912 5912 5912 5912
5827 5826 5824 5823 5822 5822 5821 5821 5820 5820 5820 5820 5820 5820 5821 5822 5823 5824 5825 5826 5828 5829 5831 5832 5833 5835 5836 5837 5839 5840 5841 5845 5849 5848 5850 5852 5853 5856 5858 5860 5862 5864 5866 5868 5869 5871 5873 5875 5876 5878 5880 5881 5882 5883 5885 5887 5889 5890 5891 5892 5893 5894 5894 5894 5897 5897 5898 5899 5899 5899 5899 5901 5902 5904 5904 5905 5906 5907 5909 5908 5908 5909 5910 5912 5912 5912 5912 5913
5824 5822 5821 5819 5819 5818 5818 5817 5816 5816 5816 5816 5816 5816 5816 5817 5818 5819 5821 5822 5823 5825 5827 5828 5830 5831 5833 5834 5836 5837 5838 5843 5847 5845 5847 5850 5851 5854 5855 5858 5860 5861 5864 5865 5867 5869 5871 5873 5875 5876 5877 5877 5879 5881 5884 5886 5888 5889 5890 5892 5893 5894 5895 5895 5896 5897 5897 5898 5899 5899 5899 5900 5902 5904 5905 5906 5906 5907 5908 5909 5909 5910 5911 5912 5912 5913 5913 5913
5821 5820 5818 5816 5815 5815 5814 5813 5813 5812 5812 5812 5812 5811 5812 5813 5813 5814 5816 5817 5819 5821 5823 5824 5826 5828 5829 5831 5832 5833 5836 5842 5843 5842 5845 5848 5849 5852 5853 5855 5858 5859 5861 5863 5865 5867 5869 5871 5872 5873 5874 5876 5879 5881 5884 5886 5887 5889 5890 5891 5893 5894 5895 5894 5894 5895 5896 5897 5898 5898 5898 5899 5901 5903 5904 5905 5906 5907 5908 5909 5910 5910 5911 5912 5912 5913 5913 5914
5818 5817 5815 5813 5812 5811 5811 5810 5809 5808 5808 5808 5807 5807 5807 5808 5808 5810 5811 5813 5815 5816 5818 5819 5821 5824 5825 5827 5828 5830 5835 5839 5840 5841 5843 5845 5847 5849 5851 5853 5855 5857 5859 5861 5863 5865 5867 5869 5869 5871 5873 5877 5880 5883 5884 5885 5887 5889 5890 5891 5893 5894 5896 5895 5894 5894 5895 5897 5897 5897 5897 5898 5900 5901 5902 5903 5905 5907 5908 5909 5911 5911 5911 5912 5912 5914 5914 5914
5815 5813 5812 5810 5809 5808 5807 5806 5805 5804 5804 5803 5803 5803 5803 5803 5804 5805 5806 5808 5810 5811 5813 5814 5817 5819 5821 5823 5824 5827 5832 5835 5836 5838 5839 5842 5845 5846 5848 5850 5853 5854 5857 5859 5861 5863 5864 5866 5868 5870 5873 5875 5879 5881 5882 5883 5886 5888 5889 5890 5892 5894 5895 5895 5894 5893 5894 5896 5897 5897 5897 5897 5899 5901 5902 5903 5905 5907 5908 5909 5910 5911 5912 5912 5913 5914 5914 5915
5812 5810 5809 5807 5806 5804 5803 5802 5801 5800 5799 5799 5798 5798 5798 5798 5799 5800 5801 5803 5804 5806 5808 5810 5812 5814 5817 5818 5819 5824 5829 5831 5832 5834 5836 5839 5841 5844 5846 5848 5850 5852 5854 5856 5858 5860 5862 5864 5867 5869 5871 5874 5877 5878 5878 5882 5885 5887 5888 5889 5891 5893 5895 5893 5892 5893 5895 5896 5896 5896 5896 5897 5898 5899 5901 5904 5905 5906 5907 5908 5909 5911 5911 5912 5913 5914 5915 5915
5809 5807 5806 5804 5802 5801 5800 5798 5798 5796 5795 5794 5794 5794 5794 5794 5794 5795 5796 5797 5799 5801 5803 5805 5807 5810 5812 5813 5816 5822 5826 5827 5829 5830 5833 5836 5838 5841 5843 5845 5848 5849 5852 5854 5856 5858 5861 5863 5866 5868 5871 5875 5876 5877 5880 5883 5885 5887 5888 5889 5891 5892 5893 5892 5891 5893 5894 5895 5896 5895 5894 5895 5896 5898 5900 5903 5904 5905 5906 5907 5909 5910 5911 5912 5913 5914 5915 5915
5806 5804 5802 5801 5799 5797 5796 5795 5793 5792 5791 5790 5789 5789 5789 5789 5789 5790 5791 5792 5794 5796 5798 5800 5802 5805 5808 5809 5813 5818 5820 5822 5825 5827 5830 5832 5835 5838 5840 5842 5845 5847 5849 5851 5854 5857 5859 5863 5866 5867 5871 5874 5874 5877 5882 5884 5885 5886 5887 5889 5890 5890 5890 5890 5891 5892 5893 5893 5895 5895 5895 5896 5896 5897 5899 5902 5904 5905 5906 5907 5908 5910 5911 5912 5913 5914 5915 5915
5802 5801 5799 5797 5795 5794 5792 5791 5790 5788 5787 5786 5785 5784 5784 5784 5784 5784 5785 5787 5788 5790 5793 5795 5797 5800 5802 5804 5810 5814 5815 5818 5821 5823 5826 5829 5832 5834 5837 5839 5842 5844 5846 5849 5852 5855 5858 5862 5864 5866 5869 5872 5873 5876 5881 5882 5884 5885 5886 5888 5889 5890 5890 5889 5890 5892 5893 5893 5894 5895 5896 5897 5897 5897 5899 5901 5903 5905 5906 5907 5908 5909 5911 5911 5912 5914 5915 5915
5799 5797 5795 5793 5791 5790 5788 5787 5785 5784 5783 5782 5781 5780 5779 5779 5779 5779 5780 5781 5783 5785 5787 5789 5792 5795 5797 5800 5806 5809 5810 5814 5817 5820 5823 5825 5828 5831 5834 5837 5839 5842 5844 5847 5850 5854 5857 5859 5861 5864 5867 5869 5871 5875 5878 5880 5883 5884 5886 5888 5889 5889 5889 5889 5889 5891 5893 5893 5894 5895 5896 5897 5896 5896 5899 5901 5902 5904 5905 5907 5908 5909 5910 5911 5912 5913 5914 5915
5797 5794 5792 5789 5787 5785 5783 5782 5780 5779 5779 5778 5777 5776 5775 5774 5774 5774 5775 5776 5778 5779 5781 5784 5787 5789 5791 5795 5800 5803 5805 5808 5812 5815 5819 5822 5824 5828 5831 5833 5836 5839 5842 5844 5848 5851 5853 5855 5857 5860 5864 5867 5869 5872 5876 5879 5882 5884 5886 5887 5889 5890 5889 5888 5888 5890 5891 5892 5893 5894 5895 5896 5895 5896 5899 5900 5901 5903 5905 5907 5908 5909 5910 5911 5912 5914 5914 5915
5794 5792 5789 5786 5783 5781 5779 5777 5776 5774 5773 5772 5772 5771 5770 5769 5769 5769 5770 5771 5772 5774 5776 5779 5781 5783 5786 5790 5793 5796 5799 5802 5808 5812 5815 5818 5821 5825 5828 5830 5833 5836 5839 5842 5846 5848 5850 5852 5855 5858 5861 5864 5866 5871 5875 5878 5881 5885 5888 5888 5888 5889 5889 5887 5887 5889 5890 5891 5891 5893 5894 5894 5894 5895 5899 5899 5900 5902 5904 5907 5907 5908 5910 5911 5912 5914 5914 5915
5792 5790 5787 5784 5781 5778 5776 5774 5772 5770 5769 5767 5766 5766 5765 5764 5764 5765 5765 5765 5767 5769 5772 5774 5776 5779 5782 5785 5789 5792 5794 5799 5804 5807 5810 5814 5818 5822 5824 5827 5830 5833 5836 5840 5843 5845 5848 5850 5853 5856 5860 5863 5865 5869 5874 5877 5879 5883 5888 5890 5889 5890 5890 5887 5886 5888 5890 5890 5891 5892 5893 5893 5892 5895 5898 5899 5901 5903 5904 5906 5908 5908 5909 5911 5912 5913 5914 5916
5791 5787 5784 5781 5778 5776 5774 5772 5770 5768 5766 5764 5762 5761 5760 5760 5760 5760 5760 5761 5761 5764 5766 5768 5770 5773 5776 5779 5783 5787 5790 5796 5800 5802 5806 5810 5814 5818 5820 5824 5827 5830 5834 5837 5839 5842 5845 5848 5851 5855 5859 5861 5865 5868 5872 5875 5877 5879 5883 5887 5888 5890 5890 5886 5885 5888 5889 5889 5890 5891 5892 5893 5893 5894 5897 5900 5901 5902 5904 5905 5908 5909 5909 5911 5912 5913 5914 5916
5788 5785 5782 5779 5777 5774 5772 5769 5767 5765 5763 5761 5759 5757 5756 5756 5756 5756 5757 5757 5757 5759 5761 5763 5766 5768 5770 5773 5777 5781 5785 5791 5795 5798 5802 5807 5810 5814 5817 5821 5824 5827 5831 5833 5836 5839 5842 5846 5850 5854 5857 5859 5863 5866 5870 5872 5874 5876 5878 5882 5885 5888 5888 5884 5882 5885 5888 5888 5888 5890 5891 5893 5893 5894 5896 5898 5901 5902 5903 5905 5906 5908 5909 5911 5912 5913 5914 5916
5787 5783 5781 5778 5775 5773 5770 5768 5766 5764 5761 5759 5756 5755 5754 5753 5753 5753 5753 5753 5753 5755 5756 5759 5762 5764 5767 5770 5774 5779 5783 5787 5791 5794 5799 5804 5807 5810 5814 5818 5821 5825 5828 5830 5833 5836 5839 5844 5848 5851 5854 5856 5859 5863 5867 5869 5870 5872 5875 5879 5883 5886 5886 5885 5883 5883 5886 5887 5887 5888 5890 5891 5891 5893 5895 5897 5899 5900 5902 5904 5905 5906 5908 5910 5911 5913 5915 5916
5785 5782 5780 5777 5774 5772 5769 5767 5764 5762 5759 5757 5755 5753 5752 5751 5751 5751 5751 5751 5751 5752 5753 5755 5758 5761 5764 5765 5769 5775 5779 5783 5788 5791 5796 5801 5803 5807 5811 5814 5818 5822 5825 5827 5831 5834 5837 5842 5845 5849 5852 5854 5857 5860 5863 5866 5867 5870 5875 5877 5880 5883 5884 5887 5886 5883 5884 5886 5886 5888 5889 5889 5890 5891 5894 5896 5897 5899 5900 5902 5904 5905 5907 5909 5911 5913 5914 5916
5784 5782 5779 5776 5773 5771 5768 5766 5763 5761 5758 5755 5754 5752 5751 5750 5750 5749 5750 5750 5750 5750 5751 5753 5756 5758 5759 5762 5767 5772 5774 5778 5782 5786 5792 5797 5799 5804 5808 5811 5815 5819 5822 5825 5828 5831 5835 5838 5842 5846 5849 5851 5855 5858 5861 5863 5865 5869 5873 5875 5879 5882 5884 5887 5886 5884 5886 5886 5886 5888 5888 5888 5889 5890 5892 5894 5896 5898 5899 5900 5902 5904 5906 5908 5910 5912 5913 5915
5783 5781 5778 5775 5773 5769 5767 5764 5762 5760 5757 5754 5752 5751 5751 5749 5749 5749 5748 5749 5749 5749 5750 5752 5753 5754 5757 5761 5764 5769 5773 5775 5777 5781 5788 5793 5795 5800 5805 5809 5814 5816 5819 5823 5825 5828 5832 5836 5840 5843 5845 5848 5852 5857 5858 5860 5863 5869 5873 5874 5878 5881 5883 5886 5885 5885 5888 5888 5886 5889 5889 5887 5889 5890 5891 5893 5895 5896 5898 5899 5901 5903 5905 5906 5908 5910 5913 5915
5782 5780 5777 5774 5771 5768 5766 5763 5761 5758 5755 5753 5752 5751 5751 5750 5749 5749 5748 5748 5748 5749 5750 5751 5753 5753 5756 5759 5761 5767 5772 5774 5775 5778 5784 5789 5792 5797 5802 5805 5810 5813 5817 5819 5821 5826 5830 5834 5837 5839 5842 5845 5849 5853 5854 5856 5862 5868 5871 5872 5875 5879 5881 5884 5883 5883 5887 5889 5889 5890 5890 5888 5888 5890 5891 5892 5893 5895 5896 5898 5900 5902 5905 5905 5907 5909 5912 5914
5781 5779 5776 5773 5770 5767 5764 5762 5760 5757 5755 5753 5752 5751 5751 5750 5749 5749 5748 5748 5749 5750 5750 5751 5752 5753 5755 5758 5761 5766 5768 5769 5774 5777 5782 5786 5789 5794 5799 5802 5805 5810 5814 5816 5819 5824 5828 5832 5833 5836 5840 5843 5845 5849 5851 5855 5860 5865 5867 5869 5872 5876 5878 5879 5880 5882 5886 5889 5890 5890 5891 5889 5886 5888 5891 5891 5893 5894 5895 5897 5899 5902 5904 5905 5907 5909 5912 5913
5781 5778 5775 5773 5770 5767 5763 5761 5759 5757 5755 5753 5752 5751 5750 5750 5750 5749 5749 5750 5750 5750 5751 5751 5752 5753 5755 5758 5761 5762 5764 5768 5773 5775 5779 5784 5786 5790 5794 5798 5803 5807 5811 5815 5818 5822 5827 5830 5830 5833 5838 5838 5840 5846 5850 5853 5858 5862 5864 5866 5869 5872 5875 5877 5879 5882 5885 5886 5887 5889 5891 5890 5886 5887 5890 5891 5892 5893 5894 5895 5896 5899 5901 5903 5905 5908 5911 5913
5780 5777 5775 5772 5769 5766 5763 5761 5759 5757 5755 5753 5752 5751 5750 5750 5750 5749 5750 5750 5751 5751 5752 5751 5752 5753 5754 5757 5759 5761 5765 5770 5770 5769 5775 5780 5784 5788 5790 5794 5799 5804 5809 5813 5816 5821 5826 5826 5825 5829 5832 5834 5839 5845 5848 5851 5855 5859 5861 5863 5868 5871 5873 5877 5877 5879 5882 5882 5885 5888 5891 5891 5886 5885 5889 5891 5891 5892 5893 5893 5895 5897 5898 5900 5903 5906 5909 5911
5780 5777 5775 5772 5769 5766 5763 5761 5759 5757 5755 5753 5752 5751 5750 5750 5750 5750 5750 5751 5752 5752 5752 5752 5752 5752 5754 5757 5759 5761 5767 5769 5767 5768 5773 5776 5780 5786 5790 5795 5799 5802 5806 5809 5812 5817 5821 5821 5822 5825 5829 5832 5838 5843 5845 5849 5853 5856 5860 5863 5866 5868 5870 5873 5874 5876 5878 5880 5884 5888 5891 5892 5887 5883 5887 5890 5889 5890 5893 5894 5894 5896 5898 5901 5903 5905 5907 5909
5779 5777 5774 5771 5769 5766 5763 5761 5759 5758 5755 5753 5752 5751 5751 5751 5751 5751 5751 5752 5752 5753 5753 5753 5753 5753 5754 5757 5760 5763 5767 5768 5767 5769 5772 5775 5779 5783 5788 5794 5799 5802 5805 5808 5810 5813 5816 5817 5818 5822 5828 5832 5836 5841 5843 5846 5850 5853 5857 5859 5861 5864 5866 5869 5871 5873 5875 5878 5882 5887 5892 5891 5884 5881 5885 5887 5886 5888 5891 5894 5894 5895 5898 5901 5903 5904 5906 5909
5779 5777 5774 5771 5768 5766 5764 5761 5759 5758 5755 5753 5753 5753 5753 5752 5752 5752 5752 5753 5752 5753 5753 5753 5755 5755 5756 5760 5763 5765 5767 5768 5768 5770 5773 5776 5780 5783 5786 5791 5796 5802 5807 5809 5811 5815 5817 5817 5817 5819 5825 5829 5833 5837 5840 5844 5847 5850 5854 5855 5857 5863 5865 5866 5869 5872 5873 5877 5880 5885 5890 5887 5881 5880 5883 5885 5885 5887 5890 5892 5892 5894 5898 5900 5901 5903 5905 5908
5779 5776 5774 5771 5768 5766 5764 5761 5760 5758 5755 5754 5754 5754 5754 5753 5752 5752 5753 5753 5753 5753 5752 5753 5756 5757 5758 5763 5765 5766 5769 5770 5770 5772 5775 5778 5781 5784 5787 5790 5793 5799 5806 5808 5810 5815 5818 5817 5817 5817 5821 5825 5827 5831 5837 5844 5846 5848 5852 5854 5856 5861 5864 5865 5868 5870 5873 5876 5880 5884 5885 5881 5879 5880 5880 5882 5885 5886 5888 5890 5890 5892 5896 5899 5900 5902 5904 5906
5778 5776 5774 5771 5768 5766 5764 5761 5760 5758 5756 5754 5754 5754 5754 5754 5753 5752 5752 5753 5753 5753 5753 5753 5756 5758 5760 5762 5764 5766 5769 5771 5770 5773 5777 5780 5783 5786 5788 5790 5792 5796 5801 5804 5808 5813 5817 5817 5817 5817 5819 5822 5825 5830 5836 5841 5844 5846 5849 5852 5855 5860 5865 5867 5869 5870 5873 5876 5879 5881 5879 5875 5876 5877 5878 5881 5884 5885 5886 5887 5887 5890 5893 5897 5899 5901 5903 5905
5778 5776 5773 5771 5769 5766 5763 5761 5759 5758 5757 5756 5755 5754 5754 5754 5753 5752 5752 5753 5753 5753 5754 5754 5755 5758 5760 5760 5762 5765 5768 5770 5771 5773 5778 5781 5782 5784 5787 5789 5791 5792 5794 5797 5802 5808 5815 5819 5816 5814 5817 5819 5824 5830 5833 5836 5840 5843 5845 5849 5853 5858 5864 5868 5869 5870 5873 5875 5877 5876 5873 5872 5874 5875 5876 5878 5881 5883 5884 5885 5886 5888 5890 5894 5897 5900 5901 5903
5777 5776 5774 5772 5769 5766 5763 5761 5760 5758 5757 5757 5756 5755 5754 5754 5753 5753 5753 5752 5753 5753 5754 5755 5755 5756 5757 5759 5760 5763 5765 5768 5771 5774 5777 5779 5779 5779 5781 5784 5786 5790 5793 5797 5801 5802 5807 5814 5812 5811 5816 5819 5822 5827 5829 5833 5837 5839 5843 5847 5851 5854 5858 5862 5866 5869 5871 5874 5875 5873 5871 5872 5873 5873 5873 5875 5878 5881 5882 5883 5885 5887 5888 5890 5893 5896 5898 5901
5777 5775 5774 5771 5768 5766 5764 5762 5760 5759 5758 5757 5756 5754 5754 5754 5754 5754 5753 5753 5753 5753 5752 5753 5753 5754 5755 5756 5759 5761 5763 5766 5770 5773 5774 5775 5776 5777 5778 5780 5782 5787 5793 5797 5801 5799 5800 5806 5807 5808 5813 5816 5819 5823 5825 5831 5834 5836 5840 5844 5847 5851 5854 5856 5860 5864 5868 5872 5873 5870 5870 5872 5871 5871 5872 5873 5876 5878 5879 5881 5883 5885 5887 5888 5890 5893 5894 5896
5776 5774 5773 5771 5769 5766 5764 5762 5760 5759 5758 5758 5757 5754 5754 5755 5754 5754 5754 5752 5752 5752 5752 5752 5753 5753 5754 5755 5757 5760 5762 5764 5768 5770 5771 5772 5774 5774 5776 5780 5782 5786 5790 5794 5798 5800 5801 5804 5805 5806 5810 5812 5815 5820 5823 5827 5830 5831 5834 5836 5840 5846 5851 5855 5859 5861 5864 5869 5871 5868 5866 5866 5866 5867 5869 5869 5871 5872 5876 5880 5882 5883 5886 5888 5889 5890 5892 5893
5774 5773 5773 5771 5769 5767 5765 5763 5761 5759 5757 5757 5757 5756 5756 5756 5754 5754 5754 5752 5752 5753 5753 5753 5753 5753 5754 5755 5756 5758 5762 5765 5767 5768 5768 5769 5770 5771 5774 5779 5782 5785 5789 5794 5798 5799 5801 5804 5804 5804 5807 5808 5811 5817 5821 5826 5830 5831 5833 5837 5840 5843 5847 5853 5858 5860 5861 5865 5867 5865 5862 5860 5861 5863 5865 5866 5867 5869 5875 5880 5880 5881 5883 5886 5887 5888 5890 5892
5774 5772 5771 5770 5769 5767 5765 5764 5762 5760 5759 5758 5758 5758 5758 5756 5755 5754 5754 5753 5753 5752 5752 5753 5754 5753 5754 5755 5756 5758 5760 5762 5763 5763 5764 5765 5765 5767 5771 5776 5781 5786 5790 5794 5797 5796 5797 5801 5802 5803 5805 5807 5809 5814 5819 5822 5827 5830 5834 5838 5841 5844 5847 5851 5855 5859 5860 5862 5864 5862 5860 5859 5860 5862 5863 5864 5866 5869 5875 5878 5877 5878 5880 5883 5886 5886 5888 5889
5773 5772 5771 5770 5769 5767 5766 5764 5763 5762 5761 5760 5759 5758 5758 5757 5755 5754 5754 5753 5753 5753 5753 5754 5754 5755 5755 5755 5756 5757 5758 5759 5760 5760 5762 5763 5764 5766 5769 5774 5779 5784 5788 5790 5789 5789 5792 5796 5798 5801 5805 5807 5809 5812 5815 5817 5821 5824 5827 5833 5838 5842 5846 5850 5855 5857 5858 5860 5860 5858 5857 5858 5859 5862 5862 5862 5864 5869 5873 5875 5875 5875 5877 5880 5883 5885 5886 5887
5772 5771 5771 5770 5769 5768 5766 5764 5763 5763 5762 5761 5760 5759 5758 5757 5756 5755 5754 5753 5753 5754 5754 5754 5755 5755 5755 5755 5756 5757 5758 5758 5760 5761 5762 5763 5763 5765 5768 5772 5776 5779 5783 5783 5782 5785 5791 5796 5797 5798 5801 5805 5807 5808 5811 5815 5818 5821 5824 5829 5835 5841 5846 5850 5853 5853 5855 5858 5857 5853 5855 5855 5856 5859 5859 5859 5863 5867 5870 5871 5871 5873 5875 5877 5880 5882 5884 5886
5772 5771 5770 5770 5769 5768 5766 5765 5764 5763 5762 5761 5760 5759 5758 5757 5756 5755 5755 5754 5754 5754 5754 5755 5755 5755 5755 5755 5756 5757 5757 5758 5759 5760 5761 5762 5763 5765 5767 5770 5774 5777 5780 5782 5784 5789 5793 5794 5795 5796 5800 5804 5805 5806 5809 5812 5814 5819 5824 5826 5831 5837 5841 5843 5845 5846 5850 5854 5851 5847 5849 5851 5851 5854 5856 5857 5860 5863 5866 5867 5868 5870 5872 5874 5877 5880 5882 5884
5771 5770 5770 5770 5769 5768 5767 5765 5764 5763 5762 5761 5760 5759 5758 5757 5756 5756 5755 5754 5754 5754 5754 5754 5755 5755 5755 5756 5756 5757 5757 5758 5759 5760 5761 5762 5763 5764 5766 5769 5772 5776 5779 5783 5787 5791 5792 5790 5791 5794 5797 5802 5804 5805 5807 5809 5812 5817 5821 5824 5830 5834 5835 5836 5838 5840 5845 5848 5844 5842 5844 5845 5847 5850 5852 5853 5856 5859 5863 5864 5865 5868 5870 5872 5874 5877 5879 5882
5770 5770 5769 5769 5768 5768 5767 5766 5765 5763 5762 5761 5760 5759 5759 5757 5757 5756 5755 5755 5754 5754 5754 5754 5754 5754 5755 5755 5756 5757 5758 5758 5759 5760 5761 5762 5763 5764 5766 5768 5771 5774 5777 5780 5784 5786 5787 5788 5790 5793 5795 5799 5800 5801 5803 5807 5812 5815 5816 5820 5825 5828 5830 5832 5834 5835 5840 5842 5839 5839 5841 5842 5844 5847 5848 5849 5853 5856 5859 5861 5862 5864 5867 5870 5872 5874 5877 5879
5769 5769 5769 5768 5768 5767 5767 5766 5765 5763 5762 5761 5760 5760 5759 5758 5757 5756 5756 5755 5755 5754 5754 5754 5754 5754 5754 5755 5756 5756 5757 5757 5758 5759 5760 5761 5762 5764 5765 5767 5769 5772 5774 5777 5780 5782 5784 5788 5791 5793 5795 5797 5798 5799 5802 5805 5808 5810 5814 5819 5820 5821 5825 5828 5830 5832 5836 5837 5835 5836 5839 5839 5840 5844 5845 5847 5850 5854 5856 5858 5859 5861 5864 5867 5870 5872 5875 5877
5768 5768 5768 5768 5767 5767 5766 5766 5765 5764 5762 5761 5761 5760 5759 5758 5758 5757 5756 5755 5755 5754 5754 5754 5754 5754 5754 5754 5754 5755 5755 5756 5757 5758 5759 5760 5761 5763 5765 5766 5768 5770 5772 5774 5777 5780 5784 5787 5788 5789 5792 5795 5797 5799 5802 5804 5805 5806 5812 5815 5815 5817 5822 5825 5827 5832 5834 5832 5830 5833 5836 5836 5837 5840 5842 5844 5848 5851 5854 5855 5856 5859 5862 5865 5867 5870 5872 5874
5767 5767 5767 5767 5766 5766 5766 5765 5765 5764 5763 5762 5761 5760 5759 5759 5758 5757 5757 5756 5755 5755 5754 5754 5754 5754 5754 5754 5753 5754 5755 5755 5756 5757 5758 5759 5761 5762 5764 5765 5767 5768 5770 5773 5775 5778 5782 5782 5782 5785 5788 5790 5793 5796 5798 5800 5802 5803 5806 5808 5807 5810 5816 5820 5825 5832 5831 5827 5828 5831 5833 5833 5834 5837 5839 5841 5845 5849 5851 5853 5854 5857 5859 5861 5863 5866 5868 5871
5766 5766 5766 5766 5765 5765 5765 5765 5764 5764 5763 5762 5761 5760 5759 5758 5758 5758 5757 5756 5756 5755 5754 5754 5753 5753 5753 5753 5753 5753 5755 5755 5756 5757 5758 5758 5759 5761 5762 5764 5766 5767 5769 5771 5773 5775 5777 5778 5780 5784 5786 5787 5790 5793 5795 5797 5799 5801 5803 5803 5803 5807 5812 5816 5821 5826 5824 5821 5824 5829 5829 5830 5832 5833 5835 5838 5842 5845 5849 5850 5852 5854 5856 5857 5860 5862 5865 5867
5765 5764 5764 5765 5764 5764 5764 5764 5764 5763 5763 5762 5761 5760 5759 5758 5758 5757 5757 5756 5756 5756 5755 5754 5754 5753 5753 5752 5752 5752 5753 5754 5755 5756 5756 5757 5758 5760 5761 5763 5765 5766 5768 5769 5771 5773 5774 5776 5780 5782 5784 5786 5788 5790 5792 5793 5795 5798 5800 5799 5800 5805 5809 5811 5815 5818 5818 5818 5822 5824 5825 5827 5830 5830 5833 5836 5838 5841 5845 5847 5849 5851 5853 5855 5857 5859 5861 5864
5764 5763 5763 5763 5763 5763 5763 5763 5763 5763 5763 5762 5761 5761 5760 5759 5758 5757 5757 5756 5756 5756 5755 5755 5754 5754 5753 5752 5752 5752 5752 5753 5754 5755 5756 5756 5758 5759 5760 5762 5763 5764 5766 5768 5770 5771 5772 5774 5777 5779 5780 5783 5785 5787 5788 5788 5791 5795 5796 5795 5798 5802 5805 5807 5809 5812 5814 5815 5817 5819 5821 5824 5826 5826 5829 5833 5834 5837 5840 5844 5846 5848 5850 5852 5854 5856 5858 5860